User: anonymous   Login
Location: Columbia
(38.9520°N, 92.3340°W)
Time: 18:23:53
(UTC-05:00)
Language:

Cosmos 2100 Rocket - Orbit

View from above orbital plane
View from above orbital plane
View from above satellite
View from above satellite

Ground track
Ground track

The orbit data is extracted from the following two-line orbital elements,

1 20805U 90083B   17141.94647260 +.00000014 +00000-0 -18593-5 0  9994
2 20805 082.9375 080.4409 0031912 106.0821 320.7168 13.75814982339527
Epoch (UTC): 21 May 2017 22:42:55
Eccentricity: 0.0031912
inclination: 82.9375°
perigee height: 955 km
apogee height: 1002 km
right ascension of ascending node: 80.4409°
argument of perigee: 106.0821°
revolutions per day: 13.75814982
mean anomaly at epoch: 320.7168°
orbit number at epoch: 33952

The dashed part of the orbit path shows where the satellite is in the earth's shadow,  

DLR